Simultaneous Nadir Overpasses (SNOs) Predictions

Prediction of SNOs between GOES-15 and NPP Satellite Orbit:

Table of predicted SNOs for the next 14.0 days since TLE Epoch: 5/6/2016
Index Date Time (GOES-15) GOES-15 Lat,Lon NPP Lat,Lon Distance(km) Time Diff (sec)
1 05/06/2016 22:34:56 -0.05,-135.20 -0.59,-137.45 258.01 80
2 05/07/2016 22:18:52 -0.06,-135.17 0.43,-132.93 255.95 80
3 05/09/2016 10:38:00 0.05,-135.14 0.73,-138.20 348.82 80
4 05/10/2016 10:21:56 0.05,-135.11 -0.28,-133.67 164.65 80
5 05/11/2016 22:41:12 -0.05,-135.07 -0.90,-138.98 445.21 80
6 05/12/2016 22:25:06 -0.05,-135.04 0.06,-134.44 68.39 80
7 05/15/2016 10:25:30 0.05,-134.98 0.08,-135.18 23.39 80
8 05/16/2016 10:09:25 0.06,-134.95 -0.88,-130.64 489.76 80
9 05/17/2016 22:28:41
